owner,sensor,date,latitude,longitude,vertical_datum,wind_speed,wind_to_direction,wind_speed_of_gust,qcFlag 
COMPS,ioos:station:USF.COMPS:SHP:1,2017-03-01T18:00:00Z,30.0600,-84.2910,10.0,3.86,192.17,5.87,'1111122,1111122,1111122' 
COMPS,ioos:station:USF.COMPS:SHP:1,2017-03-01T18:06:00Z,30.0600,-84.2910,10.0,4.72,191.71,6.46,'1111122,1111122,1111122' 
COMPS,ioos:station:USF.COMPS:SHP:1,2017-03-01T18:12:00Z,30.0600,-84.2910,10.0,5.55,198.45,6.85,'1111122,1111122,1111122' 
COMPS,ioos:station:USF.COMPS:SHP:1,2017-03-01T18:18:00Z,30.0600,-84.2910,10.0,6.65,206.48,7.93,'1111122,1111122,1111122' 
COMPS,ioos:station:USF.COMPS:SHP:1,2017-03-01T18:24:00Z,30.0600,-84.2910,10.0,5.65,214.5,6.85,'1111122,1111122,1111122' 
COMPS,ioos:station:USF.COMPS:SHP:1,2017-03-01T18:30:00Z,30.0600,-84.2910,10.0,4.73,214.85,5.87,'1111122,1111122,1111122' 
COMPS,ioos:station:USF.COMPS:SHP:1,2017-03-01T18:36:00Z,30.0600,-84.2910,10.0,5.34,222.32,6.56,'1111122,1111122,1111122' 
COMPS,ioos:station:USF.COMPS:SHP:1,2017-03-01T18:42:00Z,30.0600,-84.2910,10.0,5.66,223.28,6.76,'1111122,1111122,1111122' 
COMPS,ioos:station:USF.COMPS:SHP:1,2017-03-01T18:48:00Z,30.0600,-84.2910,10.0,5.61,222.08,7.25,'1111122,1111122,1111122' 
COMPS,ioos:station:USF.COMPS:SHP:1,2017-03-01T18:54:00Z,30.0600,-84.2910,10.0,5.6,221.21,6.95,'1111122,1111122,1111122' 
COMPS,ioos:station:USF.COMPS:SHP:1,2017-03-01T19:00:00Z,30.0600,-84.2910,10.0,5.47,224.26,6.46,'1111122,1111122,1111122' 
COMPS,ioos:station:USF.COMPS:SHP:1,2017-03-01T19:06:00Z,30.0600,-84.2910,10.0,4.96,223.73,5.78,'1111122,1111122,1111122' 
COMPS,ioos:station:USF.COMPS:SHP:1,2017-03-01T19:12:00Z,30.0600,-84.2910,10.0,5.24,220.4,6.66,'1111122,1111122,1111122' 
COMPS,ioos:station:USF.COMPS:SHP:1,2017-03-01T19:18:00Z,30.0600,-84.2910,10.0,5.52,221.44,6.66,'1111122,1111122,1111122' 
COMPS,ioos:station:USF.COMPS:SHP:1,2017-03-01T19:24:00Z,30.0600,-84.2910,10.0,5.16,224.15,6.56,'1111122,1111122,1111122' 
COMPS,ioos:station:USF.COMPS:SHP:1,2017-03-01T19:30:00Z,30.0600,-84.2910,10.0,5.74,224.87,7.35,'1111122,1111122,1111122' 
COMPS,ioos:station:USF.COMPS:SHP:1,2017-03-01T19:36:00Z,30.0600,-84.2910,10.0,5.98,223.51,7.54,'1111122,1111122,1111122' 
COMPS,ioos:station:USF.COMPS:SHP:1,2017-03-01T19:42:00Z,30.0600,-84.2910,10.0,6.27,223.29,7.54,'1111122,1111122,1111122' 
COMPS,ioos:station:USF.COMPS:SHP:1,2017-03-01T19:48:00Z,30.0600,-84.2910,10.0,6.89,220.69,7.93,'1111122,1111122,1111122' 
COMPS,ioos:station:USF.COMPS:SHP:1,2017-03-01T19:54:00Z,30.0600,-84.2910,10.0,7.7,221.0,9.01,'1111122,1111122,1111122' 
COMPS,ioos:station:USF.COMPS:SHP:1,2017-03-01T20:00:00Z,30.0600,-84.2910,10.0,7.0,224.42,9.11,'1111122,1111122,1111122' 
COMPS,ioos:station:USF.COMPS:SHP:1,2017-03-01T20:06:00Z,30.0600,-84.2910,10.0,6.57,224.1,7.83,'1111122,1111122,1111122' 
COMPS,ioos:station:USF.COMPS:SHP:1,2017-03-01T20:12:00Z,30.0600,-84.2910,10.0,7.03,222.27,8.82,'1111122,1111122,1111122' 
COMPS,ioos:station:USF.COMPS:SHP:1,2017-03-01T20:18:00Z,30.0600,-84.2910,10.0,6.58,220.38,7.93,'1111122,1111122,1111122' 
COMPS,ioos:station:USF.COMPS:SHP:1,2017-03-01T20:24:00Z,30.0600,-84.2910,10.0,6.71,216.44,7.64,'1111122,1111122,1111122' 
COMPS,ioos:station:USF.COMPS:SHP:1,2017-03-01T20:30:00Z,30.0600,-84.2910,10.0,6.96,213.3,7.74,'1111122,1111122,1111122' 
COMPS,ioos:station:USF.COMPS:SHP:1,2017-03-01T20:36:00Z,30.0600,-84.2910,10.0,6.87,207.2,8.03,'1111122,1111122,1111122' 
COMPS,ioos:station:USF.COMPS:SHP:1,2017-03-01T20:42:00Z,30.0600,-84.2910,10.0,7.12,201.11,8.42,'1111122,1111122,1111122' 
COMPS,ioos:station:USF.COMPS:SHP:1,2017-03-01T20:48:00Z,30.0600,-84.2910,10.0,7.03,203.36,8.23,'1111122,1111122,1111122' 
COMPS,ioos:station:USF.COMPS:SHP:1,2017-03-01T20:54:00Z,30.0600,-84.2910,10.0,6.31,204.7,7.54,'1111122,1111122,1111122' 
COMPS,ioos:station:USF.COMPS:SHP:1,2017-03-01T21:54:00Z,30.0600,-84.2910,10.0,5.56,199.66,8.13,'1111122,1111122,1111122' 
COMPS,ioos:station:USF.COMPS:SHP:1,2017-03-02T15:00:00Z,30.0600,-84.2910,10.0,4.91,358.63,8.23,'1111122,1111122,1111122' 
COMPS,ioos:station:USF.COMPS:SHP:1,2017-03-02T15:06:00Z,30.0600,-84.2910,10.0,4.95,358.8,6.85,'1111122,1111122,1111122' 
COMPS,ioos:station:USF.COMPS:SHP:1,2017-03-02T15:12:00Z,30.0600,-84.2910,10.0,5.45,5.7,9.3,'1111122,1111122,1111122' 
COMPS,ioos:station:USF.COMPS:SHP:1,2017-03-02T15:18:00Z,30.0600,-84.2910,10.0,5.01,6.4,8.91,'1111122,1111122,1111122' 
COMPS,ioos:station:USF.COMPS:SHP:1,2017-03-02T15:24:00Z,30.0600,-84.2910,10.0,5.26,358.96,7.83,'1111122,1111122,1111122' 
COMPS,ioos:station:USF.COMPS:SHP:1,2017-03-02T15:30:00Z,30.0600,-84.2910,10.0,5.07,0.46,7.35,'1111122,1111122,1111122' 
COMPS,ioos:station:USF.COMPS:SHP:1,2017-03-02T15:36:00Z,30.0600,-84.2910,10.0,5.71,353.65,9.01,'1111122,1111122,1111122' 
COMPS,ioos:station:USF.COMPS:SHP:1,2017-03-02T15:42:00Z,30.0600,-84.2910,10.0,4.85,357.92,7.93,'1111122,1111122,1111122' 
COMPS,ioos:station:USF.COMPS:SHP:1,2017-03-02T15:48:00Z,30.0600,-84.2910,10.0,4.48,3.42,6.17,'1111122,1111122,1111122' 
COMPS,ioos:station:USF.COMPS:SHP:1,2017-03-02T15:54:00Z,30.0600,-84.2910,10.0,4.61,0.9,7.54,'1111122,1111122,1111122' 
COMPS,ioos:station:USF.COMPS:SHP:1,2017-03-02T16:00:00Z,30.0600,-84.2910,10.0,4.58,19.08,7.35,'1111122,1111122,1111122' 
COMPS,ioos:station:USF.COMPS:SHP:1,2017-03-02T16:06:00Z,30.0600,-84.2910,10.0,6.19,355.91,9.11,'1111122,1111122,1111122' 
COMPS,ioos:station:USF.COMPS:SHP:1,2017-03-02T16:12:00Z,30.0600,-84.2910,10.0,6.02,356.56,8.82,'1111122,1111122,1111122' 
COMPS,ioos:station:USF.COMPS:SHP:1,2017-03-02T16:18:00Z,30.0600,-84.2910,10.0,5.82,9.51,8.82,'1111122,1111122,1111122' 
COMPS,ioos:station:USF.COMPS:SHP:1,2017-03-02T16:24:00Z,30.0600,-84.2910,10.0,6.35,18.8,10.19,'1111122,1111122,1111122' 
COMPS,ioos:station:USF.COMPS:SHP:1,2017-03-02T16:30:00Z,30.0600,-84.2910,10.0,7.9,12.21,10.68,'1111122,1111122,1111122' 
COMPS,ioos:station:USF.COMPS:SHP:1,2017-03-02T16:36:00Z,30.0600,-84.2910,10.0,6.92,12.6,10.29,'1111122,1111122,1111122' 
COMPS,ioos:station:USF.COMPS:SHP:1,2017-03-02T16:42:00Z,30.0600,-84.2910,10.0,5.14,12.02,8.42,'1111122,1111122,1111122' 
COMPS,ioos:station:USF.COMPS:SHP:1,2017-03-02T16:48:00Z,30.0600,-84.2910,10.0,4.97,4.14,8.23,'1111122,1111122,1111122' 
COMPS,ioos:station:USF.COMPS:SHP:1,2017-03-02T16:54:00Z,30.0600,-84.2910,10.0,5.41,9.09,9.5,'1111122,1111122,1111122' 
COMPS,ioos:station:USF.COMPS:SHP:1,2017-03-02T17:00:00Z,30.0600,-84.2910,10.0,6.15,353.95,8.33,'1111122,1111122,1111122' 
COMPS,ioos:station:USF.COMPS:SHP:1,2017-03-02T17:06:00Z,30.0600,-84.2910,10.0,5.91,9.59,8.72,'1111122,1111122,1111122' 
COMPS,ioos:station:USF.COMPS:SHP:1,2017-03-02T17:12:00Z,30.0600,-84.2910,10.0,6.21,5.14,9.99,'1111122,1111122,1111122' 
COMPS,ioos:station:USF.COMPS:SHP:1,2017-03-02T17:18:00Z,30.0600,-84.2910,10.0,5.81,11.4,10.19,'1111122,1111122,1111122' 
COMPS,ioos:station:USF.COMPS:SHP:1,2017-03-02T17:24:00Z,30.0600,-84.2910,10.0,5.0,7.14,7.64,'1111122,1111122,1111122' 
COMPS,ioos:station:USF.COMPS:SHP:1,2017-03-02T17:30:00Z,30.0600,-84.2910,10.0,5.89,345.43,8.13,'1111122,1111122,1111122' 
COMPS,ioos:station:USF.COMPS:SHP:1,2017-03-02T17:36:00Z,30.0600,-84.2910,10.0,6.36,349.38,10.09,'1111122,1111122,1111122' 
COMPS,ioos:station:USF.COMPS:SHP:1,2017-03-02T17:42:00Z,30.0600,-84.2910,10.0,6.19,356.45,9.89,'1111122,1111122,1111122' 
COMPS,ioos:station:USF.COMPS:SHP:1,2017-03-02T17:48:00Z,30.0600,-84.2910,10.0,6.47,3.2,9.11,'1111122,1111122,1111122' 
COMPS,ioos:station:USF.COMPS:SHP:1,2017-03-02T17:54:00Z,30.0600,-84.2910,10.0,6.17,357.03,8.23,'1111122,1111122,1111122' 
COMPS,ioos:station:USF.COMPS:SHP:1,2017-03-02T18:00:00Z,30.0600,-84.2910,10.0,6.13,4.58,10.09,'1111122,1111122,1111122' 
COMPS,ioos:station:USF.COMPS:SHP:1,2017-03-02T18:06:00Z,30.0600,-84.2910,10.0,6.29,5.42,8.52,'1111122,1111122,1111122' 
COMPS,ioos:station:USF.COMPS:SHP:1,2017-03-02T18:12:00Z,30.0600,-84.2910,10.0,4.7,3.18,7.44,'1111122,1111122,1111122' 
COMPS,ioos:station:USF.COMPS:SHP:1,2017-03-02T18:18:00Z,30.0600,-84.2910,10.0,4.65,354.49,7.54,'1111122,1111122,1111122' 
COMPS,ioos:station:USF.COMPS:SHP:1,2017-03-02T18:24:00Z,30.0600,-84.2910,10.0,7.05,1.61,9.6,'1111122,1111122,1111122' 
COMPS,ioos:station:USF.COMPS:SHP:1,2017-03-02T18:30:00Z,30.0600,-84.2910,10.0,6.61,353.28,9.6,'1111122,1111122,1111122' 
COMPS,ioos:station:USF.COMPS:SHP:1,2017-03-02T18:36:00Z,30.0600,-84.2910,10.0,6.17,355.4,10.09,'1111122,1111122,1111122' 
COMPS,ioos:station:USF.COMPS:SHP:1,2017-03-02T18:42:00Z,30.0600,-84.2910,10.0,6.53,12.69,9.5,'1111122,1111122,1111122' 
COMPS,ioos:station:USF.COMPS:SHP:1,2017-03-02T18:48:00Z,30.0600,-84.2910,10.0,4.88,8.95,8.52,'1111122,1111122,1111122' 
COMPS,ioos:station:USF.COMPS:SHP:1,2017-03-02T18:54:00Z,30.0600,-84.2910,10.0,4.93,18.01,7.15,'1111122,1111122,1111122' 
COMPS,ioos:station:USF.COMPS:SHP:1,2017-03-02T20:00:00Z,30.0600,-84.2910,10.0,4.83,4.45,6.85,'1111122,1111122,1111122' 
COMPS,ioos:station:USF.COMPS:SHP:1,2017-03-02T21:48:00Z,30.0600,-84.2910,10.0,3.58,11.13,4.9,'1111122,1111122,1111122' 
COMPS,ioos:station:USF.COMPS:SHP:1,2017-03-02T21:54:00Z,30.0600,-84.2910,10.0,4.54,6.55,6.46,'1111122,1111122,1111122' 
COMPS,ioos:station:USF.COMPS:SHP:1,2017-03-02T22:00:00Z,30.0600,-84.2910,10.0,4.64,8.37,6.17,'1111122,1111122,1111122' 
COMPS,ioos:station:USF.COMPS:SHP:1,2017-03-02T22:06:00Z,30.0600,-84.2910,10.0,4.75,3.17,7.93,'1111122,1111122,1111122' 
COMPS,ioos:station:USF.COMPS:SHP:1,2017-03-02T22:12:00Z,30.0600,-84.2910,10.0,5.61,3.43,7.83,'1111122,1111122,1111122' 
COMPS,ioos:station:USF.COMPS:SHP:1,2017-03-02T22:18:00Z,30.0600,-84.2910,10.0,5.19,14.01,8.62,'1111122,1111122,1111122' 
COMPS,ioos:station:USF.COMPS:SHP:1,2017-03-02T22:24:00Z,30.0600,-84.2910,10.0,3.52,6.32,5.68,'1111122,1111122,1111122' 
COMPS,ioos:station:USF.COMPS:SHP:1,2017-03-02T22:30:00Z,30.0600,-84.2910,10.0,4.05,5.11,5.97,'1111122,1111122,1111122' 
COMPS,ioos:station:USF.COMPS:SHP:1,2017-03-02T22:36:00Z,30.0600,-84.2910,10.0,4.48,16.12,6.46,'1111122,1111122,1111122' 
COMPS,ioos:station:USF.COMPS:SHP:1,2017-03-02T22:42:00Z,30.0600,-84.2910,10.0,4.79,10.66,7.25,'1111122,1111122,1111122' 
COMPS,ioos:station:USF.COMPS:SHP:1,2017-03-02T22:48:00Z,30.0600,-84.2910,10.0,4.35,5.52,6.56,'1111122,1111122,1111122' 
COMPS,ioos:station:USF.COMPS:SHP:1,2017-03-02T22:54:00Z,30.0600,-84.2910,10.0,4.78,0.23,6.27,'1111122,1111122,1111122' 
COMPS,ioos:station:USF.COMPS:SHP:1,2017-03-02T23:00:00Z,30.0600,-84.2910,10.0,3.96,3.4,6.07,'1111122,1111122,1111122' 
COMPS,ioos:station:USF.COMPS:SHP:1,2017-03-02T23:06:00Z,30.0600,-84.2910,10.0,3.78,10.12,5.87,'1111122,1111122,1111122' 
COMPS,ioos:station:USF.COMPS:SHP:1,2017-03-02T23:12:00Z,30.0600,-84.2910,10.0,3.56,8.39,4.7,'1111122,1111122,1111122' 
COMPS,ioos:station:USF.COMPS:SHP:1,2017-03-02T23:18:00Z,30.0600,-84.2910,10.0,3.35,5.19,4.5,'1111122,1111122,1111122' 
COMPS,ioos:station:USF.COMPS:SHP:1,2017-03-02T23:24:00Z,30.0600,-84.2910,10.0,3.1,4.15,4.31,'1111122,1111122,1111122' 
COMPS,ioos:station:USF.COMPS:SHP:1,2017-03-02T23:30:00Z,30.0600,-84.2910,10.0,3.01,5.41,3.72,'1111122,1111122,1111122' 
COMPS,ioos:station:USF.COMPS:SHP:1,2017-03-02T23:36:00Z,30.0600,-84.2910,10.0,2.78,3.96,4.11,'1111122,1111122,1111122' 
COMPS,ioos:station:USF.COMPS:SHP:1,2017-03-02T23:42:00Z,30.0600,-84.2910,10.0,3.03,4.79,4.31,'1111122,1111122,1111122' 
COMPS,ioos:station:USF.COMPS:SHP:1,2017-03-02T23:48:00Z,30.0600,-84.2910,10.0,2.83,1.42,4.21,'1111122,1111122,1111122' 
COMPS,ioos:station:USF.COMPS:SHP:1,2017-03-02T23:54:00Z,30.0600,-84.2910,10.0,2.21,4.73,3.23,'1111122,1111122,1111122' 
COMPS,ioos:station:USF.COMPS:SHP:1,2017-03-03T00:00:00Z,30.0600,-84.2910,10.0,2.2,3.79,3.43,'1111122,1111122,1111122' 
COMPS,ioos:station:USF.COMPS:SHP:1,2017-03-03T00:06:00Z,30.0600,-84.2910,10.0,2.33,4.52,3.52,'1111122,1111122,1111122' 
COMPS,ioos:station:USF.COMPS:SHP:1,2017-03-03T00:12:00Z,30.0600,-84.2910,10.0,2.55,4.39,3.62,'1111122,1111122,1111122' 
COMPS,ioos:station:USF.COMPS:SHP:1,2017-03-03T00:18:00Z,30.0600,-84.2910,10.0,2.47,3.46,3.13,'1111122,1111122,1111122' 
COMPS,ioos:station:USF.COMPS:SHP:1,2017-03-03T00:24:00Z,30.0600,-84.2910,10.0,2.57,4.2,3.23,'1111122,1111122,1111122' 
COMPS,ioos:station:USF.COMPS:SHP:1,2017-03-03T00:30:00Z,30.0600,-84.2910,10.0,2.56,4.78,3.43,'1111122,1111122,1111122' 
COMPS,ioos:station:USF.COMPS:SHP:1,2017-03-03T00:36:00Z,30.0600,-84.2910,10.0,2.77,3.93,3.52,'1111122,1111122,1111122' 
COMPS,ioos:station:USF.COMPS:SHP:1,2017-03-03T00:42:00Z,30.0600,-84.2910,10.0,2.89,6.6,3.72,'1111122,1111122,1111122' 
COMPS,ioos:station:USF.COMPS:SHP:1,2017-03-03T00:48:00Z,30.0600,-84.2910,10.0,2.62,5.39,3.62,'1111122,1111122,1111122' 
COMPS,ioos:station:USF.COMPS:SHP:1,2017-03-03T00:54:00Z,30.0600,-84.2910,10.0,2.73,5.41,3.52,'1111122,1111122,1111122' 
COMPS,ioos:station:USF.COMPS:SHP:1,2017-03-03T01:00:00Z,30.0600,-84.2910,10.0,2.65,2.52,3.43,'1111122,1111122,1111122' 
COMPS,ioos:station:USF.COMPS:SHP:1,2017-03-03T01:06:00Z,30.0600,-84.2910,10.0,2.55,0.02,3.33,'1111122,1111122,1111122' 
COMPS,ioos:station:USF.COMPS:SHP:1,2017-03-03T01:12:00Z,30.0600,-84.2910,10.0,2.52,4.77,3.13,'1111122,1111122,1111122' 
COMPS,ioos:station:USF.COMPS:SHP:1,2017-03-03T01:18:00Z,30.0600,-84.2910,10.0,2.22,3.18,2.94,'1111122,1111122,1111122' 
COMPS,ioos:station:USF.COMPS:SHP:1,2017-03-03T01:24:00Z,30.0600,-84.2910,10.0,2.13,359.15,2.84,'1111122,1111122,1111122' 
COMPS,ioos:station:USF.COMPS:SHP:1,2017-03-03T01:30:00Z,30.0600,-84.2910,10.0,2.38,358.18,3.43,'1111122,1111122,1111122' 
COMPS,ioos:station:USF.COMPS:SHP:1,2017-03-03T01:36:00Z,30.0600,-84.2910,10.0,2.44,0.35,3.52,'1111122,1111122,1111122' 
COMPS,ioos:station:USF.COMPS:SHP:1,2017-03-03T01:42:00Z,30.0600,-84.2910,10.0,2.48,0.47,3.52,'1111122,1111122,1111122' 
COMPS,ioos:station:USF.COMPS:SHP:1,2017-03-03T01:48:00Z,30.0600,-84.2910,10.0,2.67,356.94,4.01,'1111122,1111122,1111122' 
COMPS,ioos:station:USF.COMPS:SHP:1,2017-03-03T01:54:00Z,30.0600,-84.2910,10.0,2.45,2.04,3.72,'1111122,1111122,1111122' 
COMPS,ioos:station:USF.COMPS:SHP:1,2017-03-03T02:00:00Z,30.0600,-84.2910,10.0,2.76,358.92,4.01,'1111122,1111122,1111122' 
COMPS,ioos:station:USF.COMPS:SHP:1,2017-03-03T02:06:00Z,30.0600,-84.2910,10.0,3.1,359.65,4.41,'1111122,1111122,1111122' 
COMPS,ioos:station:USF.COMPS:SHP:1,2017-03-03T02:12:00Z,30.0600,-84.2910,10.0,3.18,1.45,3.92,'1111122,1111122,1111122' 
COMPS,ioos:station:USF.COMPS:SHP:1,2017-03-03T02:18:00Z,30.0600,-84.2910,10.0,2.88,359.19,3.82,'1111122,1111122,1111122' 
COMPS,ioos:station:USF.COMPS:SHP:1,2017-03-03T02:24:00Z,30.0600,-84.2910,10.0,3.11,3.92,4.11,'1111122,1111122,1111122' 
COMPS,ioos:station:USF.COMPS:SHP:1,2017-03-03T02:30:00Z,30.0600,-84.2910,10.0,3.31,3.02,4.7,'1111122,1111122,1111122' 
COMPS,ioos:station:USF.COMPS:SHP:1,2017-03-03T02:36:00Z,30.0600,-84.2910,10.0,3.54,4.33,4.6,'1111122,1111122,1111122' 
COMPS,ioos:station:USF.COMPS:SHP:1,2017-03-03T02:42:00Z,30.0600,-84.2910,10.0,3.99,7.42,5.19,'1111122,1111122,1111122' 
COMPS,ioos:station:USF.COMPS:SHP:1,2017-03-03T02:48:00Z,30.0600,-84.2910,10.0,3.35,4.18,4.99,'1111122,1111122,1111122' 
COMPS,ioos:station:USF.COMPS:SHP:1,2017-03-03T02:54:00Z,30.0600,-84.2910,10.0,3.28,1.83,4.9,'1111122,1111122,1111122' 
COMPS,ioos:station:USF.COMPS:SHP:1,2017-03-03T03:00:00Z,30.0600,-84.2910,10.0,2.88,358.56,4.21,'1111122,1111122,1111122' 
COMPS,ioos:station:USF.COMPS:SHP:1,2017-03-03T03:06:00Z,30.0600,-84.2910,10.0,2.85,0.6,4.01,'1111122,1111122,1111122' 
COMPS,ioos:station:USF.COMPS:SHP:1,2017-03-03T03:12:00Z,30.0600,-84.2910,10.0,2.96,358.06,4.11,'1111122,1111122,1111122' 
COMPS,ioos:station:USF.COMPS:SHP:1,2017-03-03T03:18:00Z,30.0600,-84.2910,10.0,2.9,359.69,4.41,'1111122,1111122,1111122' 
COMPS,ioos:station:USF.COMPS:SHP:1,2017-03-03T03:24:00Z,30.0600,-84.2910,10.0,2.79,355.37,3.72,'1111122,1111122,1111122' 
COMPS,ioos:station:USF.COMPS:SHP:1,2017-03-03T03:30:00Z,30.0600,-84.2910,10.0,2.51,357.39,3.52,'1111122,1111122,1111122' 
COMPS,ioos:station:USF.COMPS:SHP:1,2017-03-03T03:36:00Z,30.0600,-84.2910,10.0,2.8,5.81,4.11,'1111122,1111122,1111122' 
COMPS,ioos:station:USF.COMPS:SHP:1,2017-03-03T03:42:00Z,30.0600,-84.2910,10.0,2.43,0.78,3.23,'1111122,1111122,1111122' 
COMPS,ioos:station:USF.COMPS:SHP:1,2017-03-03T03:48:00Z,30.0600,-84.2910,10.0,2.77,0.83,3.82,'1111122,1111122,1111122' 
COMPS,ioos:station:USF.COMPS:SHP:1,2017-03-03T03:54:00Z,30.0600,-84.2910,10.0,2.71,358.8,3.82,'1111122,1111122,1111122' 
COMPS,ioos:station:USF.COMPS:SHP:1,2017-03-03T04:00:00Z,30.0600,-84.2910,10.0,2.69,355.66,4.21,'1111122,1111122,1111122' 
COMPS,ioos:station:USF.COMPS:SHP:1,2017-03-03T04:06:00Z,30.0600,-84.2910,10.0,3.03,357.76,4.31,'1111122,1111122,1111122' 
COMPS,ioos:station:USF.COMPS:SHP:1,2017-03-03T04:12:00Z,30.0600,-84.2910,10.0,2.74,359.81,4.01,'1111122,1111122,1111122' 
COMPS,ioos:station:USF.COMPS:SHP:1,2017-03-03T04:18:00Z,30.0600,-84.2910,10.0,2.88,357.05,4.5,'1111122,1111122,1111122' 
COMPS,ioos:station:USF.COMPS:SHP:1,2017-03-03T04:24:00Z,30.0600,-84.2910,10.0,2.87,353.65,3.92,'1111122,1111122,1111122' 
COMPS,ioos:station:USF.COMPS:SHP:1,2017-03-03T04:30:00Z,30.0600,-84.2910,10.0,2.96,356.34,3.82,'1111122,1111122,1111122' 
COMPS,ioos:station:USF.COMPS:SHP:1,2017-03-03T04:36:00Z,30.0600,-84.2910,10.0,3.13,356.31,4.9,'1111122,1111122,1111122' 
COMPS,ioos:station:USF.COMPS:SHP:1,2017-03-03T04:42:00Z,30.0600,-84.2910,10.0,2.93,2.24,4.31,'1111122,1111122,1111122' 
COMPS,ioos:station:USF.COMPS:SHP:1,2017-03-03T04:48:00Z,30.0600,-84.2910,10.0,3.09,3.08,4.31,'1111122,1111122,1111122' 
COMPS,ioos:station:USF.COMPS:SHP:1,2017-03-03T04:54:00Z,30.0600,-84.2910,10.0,3.03,2.23,4.11,'1111122,1111122,1111122' 
COMPS,ioos:station:USF.COMPS:SHP:1,2017-03-03T05:00:00Z,30.0600,-84.2910,10.0,2.78,359.7,4.21,'1111122,1111122,1111122' 
COMPS,ioos:station:USF.COMPS:SHP:1,2017-03-03T05:06:00Z,30.0600,-84.2910,10.0,2.81,358.0,3.82,'1111122,1111122,1111122' 
COMPS,ioos:station:USF.COMPS:SHP:1,2017-03-03T05:12:00Z,30.0600,-84.2910,10.0,2.94,356.39,4.31,'1111122,1111122,1111122' 
COMPS,ioos:station:USF.COMPS:SHP:1,2017-03-03T05:18:00Z,30.0600,-84.2910,10.0,3.01,359.39,4.01,'1111122,1111122,1111122' 
COMPS,ioos:station:USF.COMPS:SHP:1,2017-03-03T05:24:00Z,30.0600,-84.2910,10.0,2.69,356.81,4.21,'1111122,1111122,1111122' 
COMPS,ioos:station:USF.COMPS:SHP:1,2017-03-03T05:30:00Z,30.0600,-84.2910,10.0,2.92,2.88,3.82,'1111122,1111122,1111122' 
COMPS,ioos:station:USF.COMPS:SHP:1,2017-03-03T05:36:00Z,30.0600,-84.2910,10.0,3.07,3.68,3.92,'1111122,1111122,1111122' 
COMPS,ioos:station:USF.COMPS:SHP:1,2017-03-03T05:42:00Z,30.0600,-84.2910,10.0,2.75,4.66,3.92,'1111122,1111122,1111122' 
COMPS,ioos:station:USF.COMPS:SHP:1,2017-03-03T05:48:00Z,30.0600,-84.2910,10.0,2.82,4.32,3.92,'1111122,1111122,1111122' 
COMPS,ioos:station:USF.COMPS:SHP:1,2017-03-03T05:54:00Z,30.0600,-84.2910,10.0,2.54,5.25,3.23,'1111122,1111122,1111122' 
COMPS,ioos:station:USF.COMPS:SHP:1,2017-03-03T06:00:00Z,30.0600,-84.2910,10.0,2.63,4.81,3.92,'1111122,1111122,1111122' 
COMPS,ioos:station:USF.COMPS:SHP:1,2017-03-03T06:06:00Z,30.0600,-84.2910,10.0,2.52,7.44,3.23,'1111122,1111122,1111122' 
COMPS,ioos:station:USF.COMPS:SHP:1,2017-03-03T06:12:00Z,30.0600,-84.2910,10.0,2.64,6.45,3.52,'1111122,1111122,1111122' 
COMPS,ioos:station:USF.COMPS:SHP:1,2017-03-03T06:18:00Z,30.0600,-84.2910,10.0,2.63,6.08,3.52,'1111122,1111122,1111122' 
COMPS,ioos:station:USF.COMPS:SHP:1,2017-03-03T06:24:00Z,30.0600,-84.2910,10.0,3.1,6.54,4.31,'1111122,1111122,1111122' 
COMPS,ioos:station:USF.COMPS:SHP:1,2017-03-03T06:30:00Z,30.0600,-84.2910,10.0,3.05,6.71,4.01,'1111122,1111122,1111122' 
COMPS,ioos:station:USF.COMPS:SHP:1,2017-03-03T06:36:00Z,30.0600,-84.2910,10.0,2.9,9.4,3.82,'1111122,1111122,1111122' 
COMPS,ioos:station:USF.COMPS:SHP:1,2017-03-03T06:42:00Z,30.0600,-84.2910,10.0,3.04,7.95,4.21,'1111122,1111122,1111122' 
COMPS,ioos:station:USF.COMPS:SHP:1,2017-03-03T06:48:00Z,30.0600,-84.2910,10.0,2.83,1.67,4.6,'1111122,1111122,1111122' 
COMPS,ioos:station:USF.COMPS:SHP:1,2017-03-03T06:54:00Z,30.0600,-84.2910,10.0,3.06,1.32,4.21,'1111122,1111122,1111122' 
COMPS,ioos:station:USF.COMPS:SHP:1,2017-03-03T07:00:00Z,30.0600,-84.2910,10.0,3.21,4.71,4.7,'1111122,1111122,1111122' 
COMPS,ioos:station:USF.COMPS:SHP:1,2017-03-03T07:06:00Z,30.0600,-84.2910,10.0,3.13,5.02,4.5,'1111122,1111122,1111122' 
COMPS,ioos:station:USF.COMPS:SHP:1,2017-03-03T07:12:00Z,30.0600,-84.2910,10.0,2.8,4.77,4.01,'1111122,1111122,1111122' 
COMPS,ioos:station:USF.COMPS:SHP:1,2017-03-03T07:18:00Z,30.0600,-84.2910,10.0,3.11,4.42,4.5,'1111122,1111122,1111122' 
COMPS,ioos:station:USF.COMPS:SHP:1,2017-03-03T07:24:00Z,30.0600,-84.2910,10.0,2.94,2.37,4.21,'1111122,1111122,1111122' 
COMPS,ioos:station:USF.COMPS:SHP:1,2017-03-03T07:30:00Z,30.0600,-84.2910,10.0,3.11,3.72,4.21,'1111122,1111122,1111122' 
COMPS,ioos:station:USF.COMPS:SHP:1,2017-03-03T07:36:00Z,30.0600,-84.2910,10.0,3.02,2.17,4.31,'1111122,1111122,1111122' 
COMPS,ioos:station:USF.COMPS:SHP:1,2017-03-03T07:42:00Z,30.0600,-84.2910,10.0,2.62,358.15,4.31,'1111122,1111122,1111122' 
COMPS,ioos:station:USF.COMPS:SHP:1,2017-03-03T07:48:00Z,30.0600,-84.2910,10.0,2.07,353.64,3.52,'1111122,1111122,1111122' 
COMPS,ioos:station:USF.COMPS:SHP:1,2017-03-03T07:54:00Z,30.0600,-84.2910,10.0,2.08,357.42,3.33,'1111122,1111122,1111122' 
COMPS,ioos:station:USF.COMPS:SHP:1,2017-03-03T08:00:00Z,30.0600,-84.2910,10.0,1.78,359.52,2.84,'1111122,1111122,1111122' 
COMPS,ioos:station:USF.COMPS:SHP:1,2017-03-03T08:06:00Z,30.0600,-84.2910,10.0,1.48,354.75,2.35,'1111122,1111122,1111122' 
COMPS,ioos:station:USF.COMPS:SHP:1,2017-03-03T08:12:00Z,30.0600,-84.2910,10.0,1.47,356.77,2.45,'1111122,1111122,1111122' 
COMPS,ioos:station:USF.COMPS:SHP:1,2017-03-03T08:18:00Z,30.0600,-84.2910,10.0,1.64,357.31,2.54,'1111122,1111122,1111122' 
COMPS,ioos:station:USF.COMPS:SHP:1,2017-03-03T08:24:00Z,30.0600,-84.2910,10.0,1.84,355.33,2.94,'1111122,1111122,1111122' 
COMPS,ioos:station:USF.COMPS:SHP:1,2017-03-03T08:30:00Z,30.0600,-84.2910,10.0,2.0,357.21,3.03,'1111122,1111122,1111122' 
COMPS,ioos:station:USF.COMPS:SHP:1,2017-03-03T08:36:00Z,30.0600,-84.2910,10.0,1.85,3.63,2.84,'1111122,1111122,1111122' 
COMPS,ioos:station:USF.COMPS:SHP:1,2017-03-03T08:42:00Z,30.0600,-84.2910,10.0,1.61,1.64,2.45,'1111122,1111122,1111122' 
COMPS,ioos:station:USF.COMPS:SHP:1,2017-03-03T08:48:00Z,30.0600,-84.2910,10.0,1.76,359.53,2.35,'1111122,1111122,1111122' 
COMPS,ioos:station:USF.COMPS:SHP:1,2017-03-03T08:54:00Z,30.0600,-84.2910,10.0,2.02,4.01,2.94,'1111122,1111122,1111122' 
COMPS,ioos:station:USF.COMPS:SHP:1,2017-03-03T09:00:00Z,30.0600,-84.2910,10.0,2.12,4.11,3.03,'1111122,1111122,1111122' 
COMPS,ioos:station:USF.COMPS:SHP:1,2017-03-03T09:06:00Z,30.0600,-84.2910,10.0,2.01,3.09,2.64,'1111122,1111122,1111122' 
COMPS,ioos:station:USF.COMPS:SHP:1,2017-03-03T09:12:00Z,30.0600,-84.2910,10.0,1.97,5.23,2.54,'1111122,1111122,1111122' 
COMPS,ioos:station:USF.COMPS:SHP:1,2017-03-03T09:18:00Z,30.0600,-84.2910,10.0,1.78,7.39,3.13,'1111122,1111122,1111122' 
COMPS,ioos:station:USF.COMPS:SHP:1,2017-03-03T09:24:00Z,30.0600,-84.2910,10.0,1.91,7.36,2.74,'1111122,1111122,1111122' 
COMPS,ioos:station:USF.COMPS:SHP:1,2017-03-03T09:30:00Z,30.0600,-84.2910,10.0,1.64,5.43,2.05,'1111122,1111122,1111122' 
COMPS,ioos:station:USF.COMPS:SHP:1,2017-03-03T09:36:00Z,30.0600,-84.2910,10.0,1.22,359.46,2.35,'1111122,1111122,1111122' 
COMPS,ioos:station:USF.COMPS:SHP:1,2017-03-03T09:42:00Z,30.0600,-84.2910,10.0,1.41,0.21,2.25,'1111122,1111122,1111122' 
COMPS,ioos:station:USF.COMPS:SHP:1,2017-03-03T09:48:00Z,30.0600,-84.2910,10.0,1.49,355.38,2.25,'1111122,1111122,1111122' 
COMPS,ioos:station:USF.COMPS:SHP:1,2017-03-03T09:54:00Z,30.0600,-84.2910,10.0,1.83,0.95,2.64,'1111122,1111122,1111122' 
COMPS,ioos:station:USF.COMPS:SHP:1,2017-03-03T10:00:00Z,30.0600,-84.2910,10.0,1.8,0.65,2.35,'1111122,1111122,1111122' 
COMPS,ioos:station:USF.COMPS:SHP:1,2017-03-03T10:06:00Z,30.0600,-84.2910,10.0,1.93,358.65,2.84,'1111122,1111122,1111122' 
COMPS,ioos:station:USF.COMPS:SHP:1,2017-03-03T10:12:00Z,30.0600,-84.2910,10.0,1.99,2.67,3.62,'1111122,1111122,1111122' 
COMPS,ioos:station:USF.COMPS:SHP:1,2017-03-03T10:18:00Z,30.0600,-84.2910,10.0,2.25,6.86,3.13,'1111122,1111122,1111122' 